Location: Red Deer
(52.2681°N, 113.8112°W)
Time: 00:23:20
(UTC-06:00)

QB50P2 - Pass Details

Date: 25 May 2022
Orbit: 589 x 607 km, 97.9° (Epoch: 27 June)

Event Time Altitude Azimuth Distance (km) Brightness Sun altitude
Rises 03:36:09 0° 10° (N) 2,840 ? -11.9°
Reaches altitude 10° 03:38:22 10° 6° (N) 1,932 ? -11.8°
Maximum altitude 03:42:26 52° 290° (WNW) 740 ? -11.4°
Enters shadow 03:45:34 16° 218° (SW) 1,559 ? -11.2°
